Content
SEND FEEDBACK

Daily
Averages
Monthly
Summary
Canada

QUEBEC CITY, QUEBEC


Home > North America > Canada > Quebec
Elevation: 72 meters     Latitude: 46 48N     Longitude: 071 23W

WEATHER
 
SELECT A DAY
Number of Records: 192,115;   Date Range: 6/30/96 - 7/30/14
 
SHARE

PRINT THIS DATA

[ ← Previous Day ]
WEATHER ALMANAC - 16 JULY, 2013
[ Next Day → ]
[ °F ]   °C
Weather ElementAverageHighLow
Temperature26.4 °C31 °C (4:00 pm)19.4 °C (11:00 pm)
Dewpoint16.3 °C18.9 °C (11:00 am)14 °C (10:00 pm)
Humidity52.7 %77 % (11:00 pm)33 % (5:00 pm)
Barometer1021.3 hPa1022.7 hPa (9:00 am)1019.6 hPa (5:00 pm)
Wind Speed10.3 km/h16.7 km/h (2:00 am)
Weather ElementAverage
Visibility38.5 km
Wind DirectionSSE (146.8 °)

Weather ElementTotal
Precipitation---
Cooling Degree Days6.9 (Base 18.3)
Growing Degree Days15.2 (Base 10)
Averaged from 31 records on 16 July, 2013
WEATHER CONDITIONS BREAKOUT
WIND DIRECTION BREAKOUT
WEATHER BY HOUR - 16 JULY, 2013
[ °F ]   °C
Local TimeTemperatureDewpointHumidityBarometerVisibilityWind DirectionWind SpeedGust SpeedPrecipitationEventsConditions
1:00 AM25 °C18 °C65 %1020.7 hPa24.1 kmNorth (350°)9.3 km/hMostly Cloudy
2:00 AM25 °C17.8 °C55 %1020.3 hPaNNW (330°)9.3 km/h
2:00 AM25 °C18 °C65 %1020.7 hPa24.1 kmNNW (330°)16.7 km/hMostly Cloudy
3:00 AM24 °C18 °C69 %1020.7 hPa24.1 kmNNW (330°)11.1 km/hOvercast
4:00 AM24 °C17 °C65 %1020.7 hPa24.1 kmNNW (330°)11.1 km/hOvercast
5:00 AM23.3 °C17.8 °C62 %1020.7 hPaNNE (20°)3.7 km/h
5:00 AM24 °C17 °C65 %1021.3 hPa32.2 kmNNE (20°)7.4 km/hMostly Cloudy
6:00 AM23 °C17 °C69 %1021.3 hPa48.3 kmNW (320°)9.3 km/hMostly Cloudy
7:00 AM24 °C18 °C69 %1022 hPa40.2 kmNNW (340°)9.3 km/hPartly Cloudy
8:00 AM25.6 °C17.2 °C50 %1021.7 hPaNorth9.3 km/h
8:00 AM26 °C17 °C57 %1022.4 hPa40.2 kmNorth (360°)11.1 km/hPartly Cloudy
9:00 AM28 °C16 °C48 %1022.7 hPa40.2 kmNE (40°)7.4 km/hPartly Cloudy
10:00 AM28 °C16 °C48 %1022.7 hPa40.2 kmENE (60°)9.3 km/hPartly Cloudy
11:00 AM28.9 °C18.9 °C44 %1022 hPaSE (130°)13 km/h
11:00 AM29 °C17 °C48 %1022.7 hPa40.2 kmESE (120°)9.3 km/hPartly Cloudy
12:00 PM29 °C16 °C45 %1022.7 hPa40.2 kmENE (70°)13 km/hPartly Cloudy
1:00 PM29 °C16 °C45 %1022 hPa40.2 kmESE (110°)9.3 km/hPartly Cloudy
2:00 PM28.9 °C16.1 °C36 %1020.7 hPaEast (100°)13 km/h
2:00 PM30 °C15 °C40 %1021.7 hPa48.3 kmEast (80°)13 km/hPartly Cloudy
3:00 PM30 °C15 °C40 %1021.3 hPa48.3 kmENE (70°)13 km/hPartly Cloudy
4:00 PM31 °C15 °C38 %1020.7 hPa48.3 kmESE (110°)13 km/hPartly Cloudy
5:00 PM29.4 °C15.6 °C33 %1019.6 hPaEast (90°)13 km/h
5:00 PM31 °C15 °C38 %1020.3 hPa48.3 kmEast (90°)13 km/hPartly Cloudy
6:00 PM30 °C16 °C43 %1020.3 hPa48.3 kmENE (60°)9.3 km/hPartly Cloudy
7:00 PM28 °C16 °C48 %1020.3 hPa48.3 kmEast (90°)13 km/hPartly Cloudy
8:00 PM25.6 °C15.6 °C45 %1020 hPaEast (80°)5.6 km/h
8:00 PM27 °C15 °C48 %1020.7 hPa48.3 kmEast (80°)9.3 km/hScattered Clouds
9:00 PM24 °C15 °C57 %1020.7 hPa40.2 kmENE (70°)9.3 km/hScattered Clouds
10:00 PM23 °C14 °C57 %1021.3 hPa24.1 kmNE (50°)13 km/hPartly Cloudy
11:00 PM19.4 °C16.1 °C77 %1020.7 hPaWest (280°)7.2 km/h
11:00 PM22 °C15 °C64 %1021.3 hPa24.1 kmNE (40°)5.6 km/hPartly Cloudy
Hourly data recorded from CYQB, located 0 kilometers away from Quebec City, Quebec







STORIES FROM OUR PARTNERS